NOAA 16 DEB, 41511

Orbit data source: Space-Track

NOAA 16 DEB, 41511 is space debris in SSO originally from a launch on Thu, 21 Sep 2000 UTC launched from the Air Force Western Test Range (AFWTR). Debris objects in space refer to the collection of defunct objects orbiting the Earth. Examples of debris include non-operational satellites, rocket bodies, and fragments generated from explosions, collisions, or faulty payload assembly.

Loading next visibility...
Identifier
41511, 2000-055MK
Orbit
SSO
Country
Flag of USUS
Related business
Manufacturer
Unknown
Mission
Spacecraft
Bus & Motor
Unknown
Mass
Unknown
Launch date (UTC)
2000-09-21 (26 years ago)
Launch vehicle
Unknown
Launch site
Air Force Western Test Range (AFWTR)
Object type
Payload
Rocket body
Debris
Shape & HBR
Unknown shape, 0.1 m
Radar Cross Section
Small (<0.1 m²)

Expand to show TLE details & history
Last TLE update: 10 hours ago

TLE from 10 hours ago
0 NOAA 16 DEB
1 41511U 00055MK  26126.60329545  .00002540  00000-0  11493-2 0  9994
2 41511  98.6849 183.5247 0023770 225.8605 134.0619 14.22741443522011
Epoch: 2026-05-06T14:28Z
TLE epoch observation values (Epoch: 2026-05-06T14:28:44.726Z)
Latitude
-0.00001°
Longitude
101.87693°
Altitude
830.931 km
Speed
7.431 km/s
True Right ascension
12h 14m 05s
True Declination
0° 00' 00"
Sunlit
Object was in full shadow at epoch
Visualization orbit readout
Latitude
Unknown
Longitude
Unknown
Altitude
Unknown
Speed
Unknown
Apparent Right ascension
Unknown
Apparent Declination
Unknown
Sunlit
N/A
Visualization observer readout
Local Sidereal Time
08:31:05
Azimuth
Unknown
Elevation
Unknown
Doppler factor
Unknown
Orbital elements
Apogee altitude
830.344 km
Perigee altitude
796.156 km
Semi-major axis
7,191.387 km
Eccentricity
0.00238
Inclination
98.6849°
RAAN
183.5247°
Arg. of periapsis
225.8605°
True anomaly
134.25723°
Mean anomaly
134.0619°
Eccentric anomaly
134.1596°
Mean motion
3.55897 °/min
Orbital period
101.15 mins
BSTAR
0.0011493
Loading maneuver chart data...
Computing Atmospheric mass density...
Loading historical data...
Loading historical data...
Loading historical data...
Loading historical data...
Loading historical data...
Loading historical data...
Loading historical data...

Documentation

Showing up to 5 results
|